Printer-friendly version

IAU Minor Planet Center

Minor Planet Center

(44) Nysa

Orbital Elements

The following orbital elements are taken from MPO 3854
   (44) Nysa
Epoch 2002 May 6.0 TT = JDT 2452400.5                   Goffin
M 263.74416              (2000.0)            P               Q
n   0.26128585     Peri.  342.74162     -0.41285364     -0.90951652
a   2.4232159      Node   131.61347     +0.84307717     -0.40167982
e   0.1485643      Incl.    3.70302     +0.34463423     -0.10692530
P   3.77           H    7.03          G   0.46           U   0
From 1410 observations at 81 oppositions, 1857-2000, mean residual 0".52.
An explanation of the orbital elements is available.

These orbital elements are also available in forms suitable for loading into a number of popular planetarium-type software programs.


Ephemeris

The following ephemeris is at intervals of five days. A daily ephemeris covering the same time interval is also available.

Date    TT    R. A. (2000) Decl.     Delta      r     Elong.  Phase     V
 
2002 08 24    03 37.77   +15 06.9    2.020    2.335    94.9    25.6    11.2
2002 08 29    03 43.01   +15 15.5    1.953    2.326    98.4    25.4    11.1
2002 09 03    03 47.83   +15 21.8    1.886    2.318   102.1    25.2    11.0
2002 09 08    03 52.16   +15 25.6    1.821    2.310   105.9    24.8    10.9
2002 09 13    03 55.95   +15 27.0    1.757    2.302   109.8    24.3    10.8
2002 09 18    03 59.16   +15 26.1    1.694    2.294   113.9    23.6    10.7
2002 09 23    04 01.73   +15 22.8    1.634    2.286   118.2    22.8    10.6
2002 09 28    04 03.62   +15 17.4    1.575    2.278   122.6    21.8    10.5
2002 10 03    04 04.77   +15 09.7    1.520    2.270   127.2    20.5    10.4
2002 10 08    04 05.13   +14 59.9    1.467    2.262   132.1    19.1    10.3
2002 10 13    04 04.67   +14 48.2    1.418    2.254   137.1    17.5    10.2
2002 10 18    04 03.40   +14 34.7    1.374    2.246   142.3    15.7    10.0
2002 10 23    04 01.32   +14 19.7    1.334    2.239   147.7    13.7     9.9
2002 10 28    03 58.47   +14 03.4    1.298    2.231   153.2    11.6     9.8
2002 11 02    03 54.89   +13 46.3    1.269    2.223   158.9     9.2     9.7
2002 11 07    03 50.71   +13 28.8    1.245    2.216   164.5     6.9     9.6
2002 11 12    03 46.05   +13 11.5    1.228    2.209   169.8     4.6     9.4
2002 11 17    03 41.09   +12 55.0    1.217    2.202   173.3     3.0     9.4
2002 11 22    03 36.01   +12 39.9    1.212    2.195   172.0     3.6     9.4
2002 11 27    03 31.00   +12 27.0    1.214    2.188   167.3     5.7     9.4
2002 12 02    03 26.24   +12 16.8    1.223    2.181   161.7     8.2     9.5
2002 12 07    03 21.92   +12 09.8    1.237    2.174   155.9    10.7     9.6
2002 12 12    03 18.18   +12 06.6    1.258    2.168   150.1    13.1     9.7
2002 12 17    03 15.16   +12 07.3    1.284    2.161   144.4    15.4     9.8
2002 12 22    03 12.92   +12 12.0    1.314    2.155   138.9    17.5     9.9
2002 12 27    03 11.52   +12 20.7    1.349    2.149   133.6    19.4    10.0
2003 01 01    03 10.98   +12 33.3    1.388    2.143   128.5    21.0    10.1
2003 01 06    03 11.30   +12 49.6    1.430    2.137   123.6    22.5    10.2
2003 01 11    03 12.49   +13 09.2    1.475    2.132   118.9    23.8    10.3
2003 01 16    03 14.49   +13 31.8    1.522    2.126   114.4    24.9    10.4
2003 01 21    03 17.28   +13 57.0    1.571    2.121   110.1    25.8    10.4
2003 01 26    03 20.80   +14 24.4    1.621    2.116   106.0    26.6    10.5
2003 01 31    03 25.02   +14 53.5    1.673    2.111   102.0    27.2    10.6

Back to Bright Minor Planets

Astronomical Headlines Index


Valid HTML 4.01!